KRE565 SKBO-SKBQ

Flight info

Callsign KRE565
Flight time 1h 5m
Altitude 30000
Route DANSA4R GIKPU UQ120 DIBAM UW9 ELB/N0455F240 W12 DARNI DARNI1A
Aircraft B722/M-SDFGHRWY/C

Departure

Time 2026-04-25 03:03
Airport El Dorado International Airport (SKBO)

Arrival

Time 2026-04-25 04:08
Airport Ernesto Cortissoz International Airport (SKBQ)
Time Latitude Longitude Altitude Speed Heading
2026-04-25 02:16 4.69264 -74.14059 8366 ft 0 kts 32°
2026-04-25 02:22 4.69263 -74.14059 8365 ft 0 kts 32°
2026-04-25 02:27 4.69263 -74.14060 8365 ft 0 kts 32°
2026-04-25 02:43 4.69242 -74.14071 8366 ft 4 kts 21°
2026-04-25 02:43 4.69216 -74.14077 8366 ft 4 kts
2026-04-25 02:43 4.69189 -74.14074 8366 ft 4 kts 345°
2026-04-25 02:43 4.69180 -74.14071 8366 ft 0 kts 343°
2026-04-25 02:47 4.69181 -74.14071 8366 ft 1 kts 343°
2026-04-25 02:48 4.69202 -74.14078 8366 ft 5 kts 333°
2026-04-25 02:48 4.69228 -74.14124 8366 ft 10 kts 288°
2026-04-25 02:48 4.69262 -74.14195 8365 ft 12 kts 305°
2026-04-25 02:48 4.69311 -74.14260 8365 ft 12 kts 307°
2026-04-25 02:49 4.69362 -74.14327 8365 ft 12 kts 307°
2026-04-25 02:49 4.69414 -74.14395 8365 ft 12 kts 307°
2026-04-25 02:49 4.69466 -74.14464 8365 ft 13 kts 307°
2026-04-25 02:49 4.69520 -74.14534 8365 ft 13 kts 307°
2026-04-25 02:50 4.69573 -74.14606 8365 ft 13 kts 307°
2026-04-25 02:50 4.69631 -74.14682 8365 ft 15 kts 307°
2026-04-25 02:50 4.69692 -74.14763 8365 ft 15 kts 307°
2026-04-25 02:50 4.69750 -74.14841 8365 ft 11 kts 307°
2026-04-25 02:51 4.69810 -74.14863 8365 ft 11 kts 28°
2026-04-25 02:51 4.69882 -74.14812 8365 ft 15 kts 36°
2026-04-25 02:51 4.69967 -74.14749 8365 ft 15 kts 37°
2026-04-25 02:51 4.70050 -74.14685 8365 ft 15 kts 41°
2026-04-25 02:52 4.70128 -74.14625 8365 ft 14 kts 25°
2026-04-25 02:52 4.70205 -74.14570 8365 ft 14 kts 39°
2026-04-25 02:52 4.70287 -74.14508 8365 ft 15 kts 34°
2026-04-25 02:52 4.70370 -74.14446 8365 ft 15 kts 37°
2026-04-25 02:53 4.70437 -74.14398 8365 ft 9 kts 23°
2026-04-25 02:53 4.70492 -74.14418 8365 ft 10 kts 310°
2026-04-25 02:53 4.70546 -74.14486 8365 ft 14 kts 308°
2026-04-25 02:53 4.70616 -74.14576 8365 ft 18 kts 308°
2026-04-25 02:54 4.70696 -74.14684 8365 ft 20 kts 307°
2026-04-25 02:54 4.70778 -74.14792 8364 ft 19 kts 307°
2026-04-25 02:54 4.70858 -74.14898 8364 ft 19 kts 307°
2026-04-25 02:54 4.70936 -74.15002 8364 ft 19 kts 307°
2026-04-25 02:55 4.71003 -74.15091 8364 ft 8 kts 307°
2026-04-25 02:55 4.71038 -74.15138 8364 ft 9 kts 307°
2026-04-25 02:55 4.71069 -74.15178 8364 ft 8 kts 307°
2026-04-25 02:55 4.71114 -74.15213 8364 ft 8 kts 348°
2026-04-25 02:56 4.71179 -74.15220 8364 ft 10 kts 354°
2026-04-25 02:56 4.71203 -74.15223 8364 ft 0 kts 354°
2026-04-25 03:00 4.71211 -74.15224 8364 ft 4 kts 354°
2026-04-25 03:00 4.71268 -74.15228 8364 ft 10 kts
2026-04-25 03:00 4.71314 -74.15187 8363 ft 9 kts 92°
2026-04-25 03:01 4.71294 -74.15145 8363 ft 0 kts 128°
2026-04-25 03:01 4.71245 -74.15081 8363 ft 34 kts 127°
2026-04-25 03:01 4.70998 -74.14753 8363 ft 84 kts 127°
2026-04-25 03:02 4.70552 -74.14160 8364 ft 127 kts 127°
2026-04-25 03:02 4.69947 -74.13363 8365 ft 162 kts 127°
2026-04-25 03:02 4.69221 -74.12407 8492 ft 178 kts 127°
2026-04-25 03:02 4.68476 -74.11394 8855 ft 182 kts 124°
2026-04-25 03:03 4.67939 -74.10252 9348 ft 180 kts 97°
2026-04-25 03:03 4.68197 -74.09049 9658 ft 183 kts 52°
2026-04-25 03:03 4.69263 -74.08404 9954 ft 185 kts
2026-04-25 03:03 4.70528 -74.08496 10426 ft 177 kts 353°
2026-04-25 03:04 4.71751 -74.08574 10716 ft 183 kts
2026-04-25 03:04 4.73019 -74.08291 10928 ft 193 kts 18°
2026-04-25 03:04 4.74336 -74.07848 11126 ft 205 kts 18°
2026-04-25 03:05 4.77266 -74.06934 11485 ft 236 kts 16°
2026-04-25 03:05 4.78914 -74.06421 11673 ft 262 kts 17°
2026-04-25 03:05 4.80721 -74.05815 12044 ft 285 kts 18°
2026-04-25 03:05 4.82679 -74.05142 12427 ft 309 kts 18°
2026-04-25 03:06 4.84795 -74.04425 12816 ft 332 kts 18°
2026-04-25 03:06 4.87030 -74.03676 13220 ft 353 kts 18°
2026-04-25 03:06 4.89433 -74.02864 13627 ft 374 kts 18°
2026-04-25 03:06 4.91962 -74.02002 14024 ft 394 kts 18°
2026-04-25 03:07 4.94614 -74.01101 14447 ft 411 kts 18°
2026-04-25 03:07 4.97380 -74.00167 14873 ft 426 kts 18°
2026-04-25 03:07 5.00235 -73.99203 15270 ft 440 kts 18°
2026-04-25 03:07 5.03195 -73.98244 15697 ft 451 kts 16°
2026-04-25 03:08 5.06102 -73.97493 16148 ft 408 kts 12°
2026-04-25 03:08 5.08768 -73.96952 16614 ft 381 kts 11°
2026-04-25 03:08 5.11334 -73.96354 17077 ft 387 kts 14°
2026-04-25 03:08 5.13952 -73.95642 17545 ft 392 kts 14°
2026-04-25 03:09 5.16606 -73.94950 18047 ft 395 kts 13°
2026-04-25 03:09 5.19325 -73.94303 18563 ft 398 kts 12°
2026-04-25 03:09 5.21990 -73.93663 18996 ft 401 kts 13°
2026-04-25 03:09 5.24699 -73.92975 19474 ft 403 kts 13°
2026-04-25 03:10 5.27429 -73.92278 19891 ft 405 kts 13°
2026-04-25 03:10 5.30184 -73.91598 20360 ft 409 kts 13°
2026-04-25 03:10 5.32957 -73.90917 20828 ft 411 kts 13°
2026-04-25 03:10 5.35753 -73.90220 21305 ft 414 kts 13°
2026-04-25 03:11 5.38554 -73.89515 21792 ft 417 kts 13°
2026-04-25 03:11 5.41378 -73.88811 22273 ft 420 kts 13°
2026-04-25 03:11 5.44225 -73.88105 22752 ft 422 kts 13°
2026-04-25 03:11 5.47095 -73.87391 23261 ft 425 kts 13°
2026-04-25 03:12 5.49968 -73.86673 23780 ft 427 kts 13°
2026-04-25 03:12 5.52859 -73.85953 24220 ft 429 kts 13°
2026-04-25 03:12 5.55780 -73.85280 24656 ft 430 kts 11°
2026-04-25 03:12 5.58678 -73.84717 25059 ft 431 kts 10°
2026-04-25 03:13 5.61633 -73.84160 25507 ft 432 kts 11°
2026-04-25 03:13 5.64585 -73.83541 25966 ft 433 kts 12°
2026-04-25 03:13 5.67530 -73.82901 26429 ft 433 kts 12°
2026-04-25 03:13 5.70486 -73.82294 26799 ft 435 kts 11°
2026-04-25 03:14 5.73470 -73.81700 27156 ft 438 kts 12°
2026-04-25 03:14 5.76538 -73.81070 27528 ft 441 kts 12°
2026-04-25 03:14 5.79475 -73.80453 27887 ft 442 kts 12°
2026-04-25 03:14 5.82499 -73.79827 28261 ft 444 kts 12°
2026-04-25 03:15 5.85542 -73.79207 28630 ft 446 kts 12°
2026-04-25 03:15 5.88586 -73.78582 29012 ft 447 kts 12°
2026-04-25 03:15 5.91633 -73.77951 29396 ft 448 kts 12°
2026-04-25 03:15 5.94655 -73.77325 29788 ft 449 kts 12°
2026-04-25 03:16 5.97755 -73.76688 30183 ft 450 kts 12°
2026-04-25 03:16 6.00823 -73.76057 30153 ft 460 kts 12°
2026-04-25 03:16 6.07220 -73.74735 30164 ft 478 kts 12°
2026-04-25 03:17 6.13843 -73.73371 30132 ft 490 kts 12°
2026-04-25 03:17 6.20520 -73.71993 30130 ft 490 kts 12°
2026-04-25 03:18 6.24662 -73.71138 30124 ft 490 kts 12°
2026-04-25 03:18 6.28250 -73.70398 30089 ft 490 kts 12°
2026-04-25 03:19 6.34943 -73.69016 30093 ft 490 kts 12°
2026-04-25 03:19 6.41632 -73.67635 30093 ft 490 kts 12°
2026-04-25 03:20 6.48320 -73.66254 30058 ft 490 kts 12°
2026-04-25 03:20 6.54968 -73.64885 30087 ft 491 kts 12°
2026-04-25 03:21 6.61667 -73.63506 30057 ft 492 kts 12°
2026-04-25 03:21 6.68374 -73.62124 30059 ft 492 kts 12°
2026-04-25 03:22 6.75087 -73.60741 30015 ft 492 kts 12°
2026-04-25 03:22 6.80670 -73.59590 30002 ft 492 kts 12°
2026-04-25 03:23 6.87379 -73.58206 29973 ft 492 kts 12°
2026-04-25 03:23 6.94087 -73.56823 29967 ft 492 kts 12°
2026-04-25 03:24 7.00883 -73.56110 29959 ft 492 kts 360°
2026-04-25 03:24 7.07731 -73.56561 29989 ft 493 kts 355°
2026-04-25 03:25 7.14537 -73.56849 29985 ft 492 kts 359°
2026-04-25 03:25 7.21383 -73.57177 29986 ft 493 kts 356°
2026-04-25 03:26 7.28228 -73.57519 29990 ft 492 kts 358°
2026-04-25 03:26 7.35074 -73.57827 29975 ft 491 kts 357°
2026-04-25 03:27 7.41915 -73.58173 29971 ft 492 kts 358°
2026-04-25 03:27 7.48719 -73.58483 29969 ft 492 kts 357°
2026-04-25 03:28 7.55554 -73.58822 29971 ft 492 kts 358°
2026-04-25 03:28 7.62392 -73.59141 29972 ft 492 kts 357°
2026-04-25 03:29 7.69226 -73.59474 29973 ft 491 kts 357°
2026-04-25 03:29 7.76053 -73.59797 29979 ft 491 kts 357°
2026-04-25 03:30 7.82889 -73.60128 29975 ft 491 kts 357°
2026-04-25 03:30 7.89677 -73.60451 29981 ft 491 kts 357°
2026-04-25 03:31 7.96508 -73.60780 29979 ft 491 kts 357°
2026-04-25 03:31 8.03344 -73.61108 29986 ft 493 kts 357°
2026-04-25 03:32 8.10205 -73.61437 29987 ft 493 kts 357°
2026-04-25 03:32 8.17065 -73.61779 29992 ft 493 kts 355°
2026-04-25 03:33 8.20398 -73.62354 29991 ft 493 kts 344°
2026-04-25 03:33 8.23656 -73.63422 29998 ft 492 kts 339°
2026-04-25 03:33 8.29943 -73.66161 29985 ft 493 kts 335°
2026-04-25 03:34 8.36340 -73.68723 29987 ft 493 kts 339°
2026-04-25 03:34 8.42700 -73.71337 29638 ft 493 kts 336°
2026-04-25 03:35 8.45847 -73.72672 29268 ft 487 kts 337°
2026-04-25 03:35 8.48982 -73.73928 28909 ft 483 kts 338°
2026-04-25 03:35 8.52102 -73.75171 28544 ft 480 kts 337°
2026-04-25 03:35 8.55183 -73.76449 28186 ft 477 kts 337°
2026-04-25 03:36 8.58233 -73.77725 27839 ft 474 kts 337°
2026-04-25 03:36 8.61282 -73.78969 27490 ft 471 kts 338°
2026-04-25 03:36 8.64317 -73.80197 27134 ft 467 kts 338°
2026-04-25 03:36 8.67323 -73.81433 26798 ft 464 kts 337°
2026-04-25 03:37 8.70267 -73.82652 26464 ft 461 kts 337°
2026-04-25 03:37 8.73235 -73.83869 26135 ft 459 kts 338°
2026-04-25 03:37 8.76215 -73.85085 25804 ft 455 kts 337°
2026-04-25 03:37 8.79110 -73.86274 25486 ft 452 kts 337°
2026-04-25 03:38 8.82013 -73.87471 25163 ft 450 kts 337°
2026-04-25 03:38 8.84902 -73.88657 24852 ft 447 kts 337°
2026-04-25 03:38 8.87780 -73.89836 24536 ft 444 kts 337°
2026-04-25 03:38 8.90648 -73.91015 24223 ft 441 kts 337°
2026-04-25 03:39 8.93477 -73.92180 23925 ft 439 kts 337°
2026-04-25 03:39 8.96301 -73.93340 23622 ft 436 kts 337°
2026-04-25 03:39 8.99107 -73.94492 23270 ft 434 kts 337°
2026-04-25 03:39 9.01891 -73.95637 22917 ft 431 kts 337°
2026-04-25 03:40 9.04666 -73.96790 22554 ft 428 kts 336°
2026-04-25 03:40 9.07363 -73.98045 22199 ft 426 kts 333°
2026-04-25 03:40 9.09971 -73.99463 21854 ft 423 kts 330°
2026-04-25 03:40 9.12523 -74.00841 21513 ft 420 kts 332°
2026-04-25 03:41 9.15177 -74.02143 21171 ft 418 kts 334°
2026-04-25 03:41 9.17762 -74.03397 20845 ft 416 kts 333°
2026-04-25 03:41 9.20340 -74.04723 20511 ft 414 kts 332°
2026-04-25 03:41 9.22896 -74.06057 20179 ft 412 kts 332°
2026-04-25 03:42 9.25452 -74.07348 19860 ft 410 kts 333°
2026-04-25 03:42 9.28006 -74.08623 19536 ft 408 kts 333°
2026-04-25 03:42 9.30535 -74.09908 19222 ft 400 kts 332°
2026-04-25 03:42 9.32960 -74.11151 18901 ft 383 kts 332°
2026-04-25 03:43 9.35298 -74.12338 18584 ft 368 kts 333°
2026-04-25 03:43 9.37551 -74.13477 18265 ft 356 kts 333°
2026-04-25 03:43 9.39746 -74.14592 17899 ft 349 kts 332°
2026-04-25 03:43 9.41901 -74.15690 17538 ft 345 kts 332°
2026-04-25 03:44 9.44047 -74.16781 17177 ft 343 kts 332°
2026-04-25 03:44 9.46171 -74.17859 16833 ft 341 kts 332°
2026-04-25 03:44 9.48256 -74.18919 16489 ft 339 kts 332°
2026-04-25 03:44 9.50367 -74.19992 16149 ft 337 kts 332°
2026-04-25 03:45 9.52457 -74.21055 15812 ft 335 kts 332°
2026-04-25 03:45 9.54531 -74.22110 15484 ft 333 kts 332°
2026-04-25 03:45 9.56608 -74.23166 15151 ft 332 kts 332°
2026-04-25 03:45 9.58667 -74.24214 14830 ft 330 kts 332°
2026-04-25 03:46 9.60688 -74.25242 14511 ft 328 kts 332°
2026-04-25 03:46 9.62728 -74.26279 14190 ft 327 kts 332°
2026-04-25 03:46 9.64761 -74.27314 13878 ft 325 kts 332°
2026-04-25 03:46 9.66780 -74.28342 13535 ft 324 kts 332°
2026-04-25 03:47 9.68793 -74.29366 13179 ft 322 kts 332°
2026-04-25 03:47 9.70776 -74.30376 12833 ft 316 kts 332°
2026-04-25 03:47 9.72721 -74.31365 12482 ft 310 kts 332°
2026-04-25 03:47 9.74625 -74.32336 12133 ft 308 kts 332°
2026-04-25 03:48 9.76527 -74.33305 11784 ft 306 kts 332°
2026-04-25 03:48 9.78436 -74.34276 11462 ft 304 kts 332°
2026-04-25 03:48 9.80327 -74.35239 11121 ft 303 kts 332°
2026-04-25 03:48 9.82203 -74.36194 10792 ft 302 kts 332°
2026-04-25 03:49 9.84077 -74.37148 10472 ft 300 kts 332°
2026-04-25 03:49 9.85942 -74.38098 10145 ft 299 kts 332°
2026-04-25 03:49 9.87798 -74.39043 9817 ft 297 kts 332°
2026-04-25 03:49 9.89648 -74.39985 9472 ft 296 kts 332°
2026-04-25 03:50 9.91487 -74.40922 9118 ft 293 kts 332°
2026-04-25 03:50 9.93293 -74.41842 8761 ft 288 kts 332°
2026-04-25 03:50 9.95067 -74.42746 8418 ft 283 kts 332°
2026-04-25 03:50 9.96789 -74.43624 8080 ft 279 kts 332°
2026-04-25 03:51 9.98512 -74.44502 7738 ft 275 kts 332°
2026-04-25 03:51 10.00215 -74.45370 7400 ft 272 kts 332°
2026-04-25 03:51 10.01900 -74.46229 7065 ft 270 kts 332°
2026-04-25 03:51 10.03567 -74.47079 6740 ft 268 kts 332°
2026-04-25 03:52 10.05230 -74.47927 6415 ft 266 kts 332°
2026-04-25 03:52 10.06884 -74.48771 6074 ft 265 kts 332°
2026-04-25 03:52 10.08526 -74.49608 5731 ft 264 kts 332°
2026-04-25 03:52 10.10165 -74.50444 5389 ft 263 kts 332°
2026-04-25 03:53 10.11797 -74.51277 5056 ft 262 kts 332°
2026-04-25 03:53 10.13382 -74.52085 4969 ft 254 kts 333°
2026-04-25 03:53 10.14950 -74.52885 4960 ft 251 kts 332°
2026-04-25 03:53 10.16497 -74.53715 4956 ft 251 kts 330°
2026-04-25 03:54 10.18016 -74.54598 4957 ft 252 kts 329°
2026-04-25 03:54 10.19535 -74.55484 4958 ft 251 kts 329°
2026-04-25 03:54 10.21060 -74.56355 4958 ft 252 kts 330°
2026-04-25 03:54 10.22585 -74.57222 4959 ft 251 kts 330°
2026-04-25 03:55 10.24116 -74.58100 4956 ft 252 kts 329°
2026-04-25 03:55 10.25642 -74.58974 4957 ft 251 kts 329°
2026-04-25 03:55 10.27154 -74.59839 4959 ft 251 kts 329°
2026-04-25 03:55 10.28673 -74.60709 4961 ft 251 kts 329°
2026-04-25 03:56 10.30200 -74.61583 4964 ft 251 kts 329°
2026-04-25 03:56 10.31725 -74.62457 4963 ft 252 kts 330°
2026-04-25 03:56 10.33252 -74.63332 4959 ft 251 kts 329°
2026-04-25 03:56 10.34775 -74.64204 4957 ft 252 kts 330°
2026-04-25 03:57 10.36300 -74.65078 4962 ft 251 kts 329°
2026-04-25 03:57 10.37824 -74.65951 4959 ft 252 kts 330°
2026-04-25 03:57 10.39347 -74.66823 4960 ft 252 kts 329°
2026-04-25 03:57 10.40872 -74.67698 4957 ft 252 kts 330°
2026-04-25 03:58 10.42399 -74.68574 4957 ft 252 kts 330°
2026-04-25 03:58 10.43923 -74.69446 4963 ft 251 kts 329°
2026-04-25 03:58 10.45431 -74.70311 4960 ft 251 kts 329°
2026-04-25 03:58 10.46974 -74.71197 4964 ft 251 kts 329°
2026-04-25 03:59 10.48483 -74.72061 4964 ft 252 kts 330°
2026-04-25 03:59 10.50010 -74.72936 4958 ft 251 kts 329°
2026-04-25 03:59 10.51535 -74.73812 4956 ft 251 kts 329°
2026-04-25 03:59 10.53057 -74.74685 4962 ft 251 kts 329°
2026-04-25 04:00 10.54584 -74.75561 4955 ft 251 kts 329°
2026-04-25 04:00 10.56111 -74.76437 4958 ft 252 kts 330°
2026-04-25 04:00 10.57597 -74.77370 4949 ft 251 kts 322°
2026-04-25 04:00 10.58929 -74.78516 4953 ft 252 kts 317°
2026-04-25 04:01 10.60251 -74.79673 4955 ft 250 kts 320°
2026-04-25 04:01 10.61612 -74.80754 4954 ft 244 kts 322°
2026-04-25 04:01 10.62955 -74.81805 4789 ft 246 kts 321°
2026-04-25 04:01 10.64307 -74.82887 4462 ft 247 kts 321°
2026-04-25 04:02 10.65642 -74.83968 4156 ft 248 kts 320°
2026-04-25 04:02 10.67008 -74.85072 3832 ft 248 kts 321°
2026-04-25 04:02 10.68350 -74.86151 3528 ft 248 kts 321°
2026-04-25 04:02 10.69706 -74.87238 3218 ft 249 kts 321°
2026-04-25 04:03 10.71068 -74.88330 2945 ft 246 kts 322°
2026-04-25 04:03 10.72512 -74.89187 2944 ft 238 kts 336°
2026-04-25 04:03 10.74127 -74.89447 2947 ft 237 kts
2026-04-25 04:03 10.75698 -74.89128 2957 ft 221 kts 21°
2026-04-25 04:04 10.76992 -74.88450 2786 ft 201 kts 34°
2026-04-25 04:04 10.78038 -74.87564 2528 ft 192 kts 44°
2026-04-25 04:04 10.79009 -74.86653 2290 ft 185 kts 41°
2026-04-25 04:04 10.79931 -74.85874 2065 ft 164 kts 40°
2026-04-25 04:05 10.80757 -74.85171 1858 ft 149 kts 42°
2026-04-25 04:05 10.81535 -74.84490 1675 ft 147 kts 40°
2026-04-25 04:05 10.82333 -74.83815 1491 ft 148 kts 41°
2026-04-25 04:05 10.83116 -74.83125 1293 ft 150 kts 40°
2026-04-25 04:06 10.83917 -74.82452 1100 ft 150 kts 41°
2026-04-25 04:06 10.84693 -74.81766 920 ft 146 kts 41°
2026-04-25 04:06 10.85463 -74.81078 754 ft 144 kts 42°
2026-04-25 04:06 10.86220 -74.80417 588 ft 148 kts 40°
2026-04-25 04:07 10.87015 -74.79738 414 ft 149 kts 40°
2026-04-25 04:07 10.87795 -74.79082 189 ft 145 kts 39°
2026-04-25 04:07 10.88537 -74.78452 91 ft 121 kts 39°
2026-04-25 04:07 10.89032 -74.78026 74 ft 69 kts 39°
2026-04-25 04:08 10.89224 -74.77862 66 ft 43 kts 40°
2026-04-25 04:08 10.89429 -74.77683 66 ft 35 kts 40°
2026-04-25 04:08 10.89607 -74.77532 66 ft 33 kts 40°
2026-04-25 04:08 10.89787 -74.77378 56 ft 34 kts 39°
2026-04-25 04:09 10.89931 -74.77255 59 ft 18 kts 40°
2026-04-25 04:09 10.89950 -74.77161 55 ft 14 kts 129°
2026-04-25 04:09 10.89861 -74.77125 59 ft 15 kts 201°
2026-04-25 04:09 10.89766 -74.77181 60 ft 17 kts 211°
2026-04-25 04:10 10.89655 -74.77202 62 ft 18 kts 161°
2026-04-25 04:10 10.89540 -74.77138 59 ft 17 kts 165°
2026-04-25 04:10 10.89522 -74.77141 61 ft 0 kts 272°